This demonstration page uses our WeatherBlox Daily Observations layout. Learn more.

41.55636, -103.73856

Hourly Observations for June 30, 2016

Temp ( °F °C ) Dew Point ( °F °C ) Humidity (%) Winds ( mph kmh ) Pressure ( in mb ) Visibility ( mi km ) Precip ( " mm )
12:53 am 00:53 Partly Cloudy 66 18.9 54 12.2 65 65 ENE 14 22 29.98 1015 10 16.0934 0 0.0254
1:06 am 01:06 Clear 64 18 57 14 78 78 ESE 14 22 29.97 1015 10 16.0934 0 0
1:53 am 01:53 Clear 62 16.7 56 13.3 80 80 S 6 9 29.97 1015 10 16.0934 0 0
2:53 am 02:53 Clear 61 16.1 57 13.9 87 87 NE 10 17 30 1016 10 16.0934 0 0
3:53 am 03:53 Clear 59 15 56 13.3 90 90 N 3 6 30.03 1017 10 16.0934 0 0
4:53 am 04:53 Clear 58 14.4 55 12.8 90 90 W 6 9 30.03 1017 10 16.0934 0 0
5:53 am 05:53 Sunny 57 13.9 55 12.8 93 93 WNW 3 6 30.05 1018 9 14.48406 0 0
6:53 am 06:53 Cloudy 63 17.2 58 14.4 84 84 WNW 5 7 30.04 1017 10 16.0934 0 0
7:53 am 07:53 Mostly Sunny 66 18.9 57 13.9 73 73 NW 7 11 30.06 1018 10 16.0934 0 0
8:53 am 08:53 Sunny 69 20.6 57 13.9 66 66 NW 7 11 30.08 1019 10 16.0934 0 0
9:53 am 09:53 Sunny 73 22.8 56 13.3 55 55 NNW 10 17 30.06 1018 10 16.0934 0 0
10:53 am 10:53 Sunny 76 24.4 56 13.3 50 50 W 8 13 30.07 1018 10 16.0934 0 0
11:53 am 11:53 Partly Cloudy 77 25 55 12.8 47 47 N 5 7 30.06 1018 10 16.0934 0 0
12:53 pm 12:53 Mostly Sunny 80 26.7 56 13.3 44 44 E 12 19 30.06 1018 10 16.0934 0 0
1:53 pm 13:53 Mostly Cloudy 81 27.2 56 13.3 42 42 ENE 13 20 30.06 1018 10 16.0934 0 0
2:53 pm 14:53 Sunny 78 25.6 55 12.8 45 45 ENE 13 20 30.06 1018 10 16.0934 0 0
3:53 pm 15:53 Sunny 77 25 54 12.2 45 45 NE 21 33 30.06 1018 10 16.0934 0 0
4:53 pm 16:53 Mostly Cloudy 76 24.4 54 12.2 47 47 E 15 24 30.05 1018 10 16.0934 0 0
5:53 pm 17:53 Mostly Sunny 78 25.6 52 11.1 40 40 E 15 24 30.04 1017 10 16.0934 0 0
6:53 pm 18:53 Partly Cloudy 75 23.9 49 9.4 40 40 ESE 13 20 30.05 1018 10 16.0934 0 0
7:53 pm 19:53 Cloudy 73 22.8 47 8.3 40 40 E 12 19 30.06 1018 10 16.0934 0 0
8:53 pm 20:53 Cloudy 70 21.1 52 11.1 53 53 E 10 17 30.06 1018 10 16.0934 0 0
9:53 pm 21:53 Mostly Cloudy 67 19.4 52 11.1 59 59 E 7 11 30.07 1018 10 16.0934 0 0
10:53 pm 22:53 Clear 64 17.8 54 12.2 70 70 ESE 8 13 30.07 1018 10 16.0934 0 0
11:53 pm 23:53 Clear 63 17.2 56 13.3 78 78 SE 6 9 30.08 1019 10 16.0934 0 0

Powered by AerisWeather